#timestamp,LO_Frequency,Hit,StdDev 
1547215215.2,286046998.3,N
1547215235.9,286047000.8,N
1547215255.7,286047000.8,N
1547215275.6,286046998.1,N
1547215295.4,286046998.9,N
1547215315.2,286046998.2,N
1547215335.1,286046998.1,N
1547215336.0,286046998.1,N
1547215355.8,286047002.1,N
1547215375.7,286046999.8,N
1547215395.5,286046998.1,N
1547215415.3,286046998.4,N
1547215435.2,286046998.4,N
1547215455.0,286046998.3,N
1547215455.9,286046998.3,N
1547215475.7,286046998.7,N
1547215495.6,286047002.4,N
1547215515.4,286047001.9,N
1547215535.3,286047000.0,N
1547215555.1,286046998.2,N
1547215556.0,286046998.2,N
1547215575.8,286046998.6,N
1547215595.7,286047000.8,N
1547215615.5,286046996.9,N
1547215635.3,286046998.7,N
1547215655.2,286046998.3,N
1547215675.0,286046998.4,N
1547215675.9,286046998.4,N
1547215695.8,286047000.3,N
1547215715.6,286047000.2,N
1547215735.4,286047002.7,N
1547215755.3,286047000.0,N
1547215775.1,286047002.0,N
1547215795.8,286047003.0,N
1547215815.7,286047004.4,N
1547215835.5,286047004.4,N
1547215855.4,286047004.4,N
1547215875.2,286047003.2,N
1547215895.0,286047001.6,N
1547215895.9,286047001.6,N
1547215915.8,286047002.2,N
1547215935.6,286047000.4,N
1547215955.5,286046999.7,N
1547215975.3,286047000.5,N
1547215995.1,286047002.7,N
1547216015.9,286047001.8,N
1547216035.7,286047000.5,N
1547216055.5,286047002.4,N
1547216075.4,286047003.8,N
1547216095.2,286047005.9,N
1547216115.0,286047003.6,N
1547216116.0,286047003.6,N
1547216135.8,286047001.3,N
1547216155.6,286047003.6,N
1547216175.5,286047004.0,N
1547216195.3,286047002.8,N
1547216215.1,286046998.2,N
1547216235.9,286046998.9,N
1547216255.7,286046998.7,N
1547216275.5,286046998.7,N
1547216295.4,286046999.6,N
1547216315.2,286046998.9,N
1547216335.1,286047000.0,N
1547216336.0,286047000.0,N
1547216355.8,286046999.8,N
1547216375.6,286047000.1,N
1547216395.5,286046998.8,N
1547216415.3,286047000.3,N
1547216435.2,286047000.9,N
1547216455.9,286047002.7,N
1547216475.7,286047002.7,N
1547216495.6,286047002.5,N
1547216515.4,286047001.6,N
1547216535.2,286047001.8,N
1547216555.1,286047005.3,N
1547216556.0,286047005.3,N
1547216575.8,286047004.7,N
1547216595.7,286047005.0,N
1547216615.5,286047007.5,Y
1547216635.3,286047003.9,P
1547216655.2,286047002.0,N
1547216675.0,286047001.9,N
1547216675.9,286047001.9,N
1547216695.8,286047002.2,N
1547216715.6,286047002.3,Y
1547216735.4,286046998.4,P
1547216755.3,286046998.5,N
1547216775.1,286046999.5,N
1547216795.9,286046996.6,N
1547216815.7,286046997.5,N
1547216835.5,286046995.1,N
1547216855.4,286046995.7,N
1547216875.2,286046996.2,N
1547216895.0,286046997.8,N
1547216896.0,286046997.8,N
1547216915.8,286046995.5,N
1547216935.6,286046995.3,N
1547216955.5,286046997.1,N
1547216975.3,286046997.6,N
1547216995.1,286046997.0,N
1547217015.9,286046998.9,N
1547217035.7,286046998.2,N
1547217055.6,286047002.3,N
1547217075.4,286046999.3,N
1547217095.2,286046995.0,N
1547217115.1,286046995.9,N
1547217116.0,286046995.9,N
1547217135.8,286046995.6,N
1547217155.6,286046995.1,N
1547217175.5,286046998.3,N
1547217195.3,286047000.4,N
1547217215.2,286046998.4,N
1547217235.9,286046998.5,N
1547217255.7,286046999.5,N
1547217275.6,286046996.9,N
1547217295.4,286046996.6,N
1547217315.2,286046999.5,N
1547217335.1,286046996.5,N
1547217336.0,286046996.5,N
1547217355.8,286046996.7,N
1547217375.7,286046995.2,N
1547217395.5,286046996.0,N
1547217415.3,286046995.5,N
1547217435.2,286046995.8,N
1547217455.9,286046996.5,N
1547217475.7,286046997.1,N
1547217495.6,286046999.6,N
1547217515.4,286046998.6,N
1547217535.2,286047002.1,N
1547217555.1,286046999.9,N
1547217556.0,286046999.9,N
1547217575.8,286047002.5,N
1547217595.7,286047001.4,N
1547217615.5,286046999.8,N
1547217635.3,286047000.7,N
1547217655.2,286046998.7,N
1547217675.0,286046994.9,N
1547217675.9,286046994.9,N
1547217695.8,286046995.3,N
1547217715.6,286046995.4,N
1547217735.4,286046996.8,N
1547217755.3,286046996.5,N
1547217775.1,286046999.0,N
1547217795.8,286046997.2,N
1547217815.7,286046996.6,N
1547217835.5,286046997.0,N
1547217855.3,286046997.9,N
1547217875.2,286046995.4,N
1547217895.0,286046995.0,N
1547217895.9,286046995.0,N
1547217915.8,286046995.0,N
1547217935.6,286046997.6,N
1547217955.4,286046997.9,N
1547217975.3,286046996.9,N
1547217995.1,286046999.5,N
1547218015.8,286046996.9,N
1547218035.7,286046996.9,N
1547218055.5,286046997.0,N
1547218075.4,286046996.1,N
1547218095.2,286046995.5,N
1547218115.0,286046997.4,N
1547218115.9,286046997.4,N
1547218135.8,286046997.3,N
1547218155.6,286046995.3,Y
1547218175.4,286046999.4,P
1547218195.3,286047002.6,N
1547218215.1,286047001.9,N
1547218235.9,286047000.9,N
1547218255.7,286046998.3,N
1547218275.5,286046998.6,N
1547218295.4,286047001.5,N
1547218315.2,286047001.6,N
1547218335.0,286047001.9,N
1547218335.9,286047001.9,N
1547218355.8,286047000.6,N
1547218375.6,286047002.8,N
1547218395.5,286047001.8,N
1547218415.3,286047002.4,N
1547218435.1,286047000.3,N
1547218455.9,286047001.7,N
1547218475.7,286047002.7,N
1547218495.5,286047000.9,N
1547218515.4,286046999.5,N
1547218535.2,286046998.4,N
1547218555.1,286046996.5,N
1547218556.0,286046996.5,N
1547218575.8,286046998.6,N
1547218595.6,286046999.1,N
1547218615.5,286046998.6,N
1547218635.3,286047001.0,N
1547218655.1,286047001.2,N
1547218675.9,286046999.4,N
1547218695.7,286046999.4,N
1547218715.6,286046996.5,N
1547218735.4,286046996.5,N
1547218755.2,286046998.2,N
1547218775.1,286047000.8,N
1547218776.0,286047000.8,N
1547218795.8,286047000.7,N
